Weather History for Sisseton, SD

Change the Weather History Date:

Saturday, November 22, 2014

  Actual Average Record
Temperature  
Mean Temperature 36 °F 27 °F  
Max Temperature 40 °F 36 °F 67 °F (2006)
Min Temperature 31 °F 18 °F -5 °F (1996)
Degree Days  
Heating Degree Days 29 38  
Month to date heating degree days 857 702  
Since 1 July heating degree days 1565 1529  
Cooling Degree Days 0 0  
Month to date cooling degree days 0 0  
Year to date cooling degree days 442 527  
Moisture  
Dew Point 30 °F    
Average Humidity 85    
Maximum Humidity 100    
Minimum Humidity 70    
Precipitation  
Precipitation 0.00 in 0.01 in 0.58 in (1963)
Month to date precipitation 0.86 0.51  
Year to date precipitation 23.01 21.87  
Snow  
Snow 0.00 in - - ()
Month to date snowfall 7.4  
Since 1 July snowfall 7.4  
Snow Depth 5.00 in    
Sea Level Pressure  
Sea Level Pressure 29.58 in    
Wind  
Wind Speed 8 mph (South)    
Max Wind Speed 16 mph    
Max Gust Speed 21 mph    
T = Trace of Precipitation, MM = Missing Value Source: NWS Daily Summary

Daily Weather History Graph

Daily Weather History Graph

Search for Another Location

Airport:

Trip Planner

Search our weather history database for the weather conditions in past years. The results will help you decide how hot, cold, wet, or windy it might be!

Date:

Astronomy

Nov. 22, 2014 Rise Set
Actual Time 7:37 AM CST 4:50 PM CST
Civil Twilight 7:04 AM CST 5:23 PM CST
Nautical Twilight 6:27 AM CST 6:00 PM CST
Astronomical Twilight 5:52 AM CST 6:35 PM CST
Moon 7:32 AM CST (11/22) 5:23 PM CST (11/22)
Length of Visible Light 10h 19m
Length of Day
9h 13m
New Moon, 0% of the Moon is Illuminated
Nov 22
New Moon
Nov 29
First Quarter
Dec 6
Full
Dec 14
Last Quarter
Dec 21
New

Hourly Weather History & Observations

Time (CST) Temp. Windchill Dew Point Humidity Pressure Visibility Wind Dir Wind Speed Gust Speed Precip Events Conditions
12:56 AM 37.0 °F 31.0 °F 28.9 °F 73% 29.77 in - NNE 8.1 mph - N/A   Unknown
1:56 AM 36.0 °F 32.1 °F 28.0 °F 73% 29.75 in - Variable 4.6 mph - N/A   Unknown
2:56 AM 35.1 °F 29.3 °F 27.0 °F 72% 29.75 in - West 6.9 mph - N/A   Unknown
3:56 AM 33.1 °F - 27.0 °F 78% 29.74 in - Calm Calm - N/A   Unknown
4:56 AM 34.0 °F - 27.0 °F 75% 29.71 in - Calm Calm - N/A   Unknown
5:56 AM 34.0 °F 27.2 °F 26.1 °F 73% 29.71 in - WSW 8.1 mph - N/A   Unknown
6:56 AM 33.1 °F 26.9 °F 26.1 °F 75% 29.70 in - SW 6.9 mph - N/A   Unknown
7:56 AM 35.1 °F 26.4 °F 26.1 °F 70% 29.68 in - SW 12.7 mph - N/A   Unknown
8:56 AM 37.9 °F 32.7 °F 28.0 °F 68% 29.66 in - South 6.9 mph - N/A   Unknown
9:56 AM 35.1 °F 27.9 °F 28.0 °F 76% 29.64 in - SE 9.2 mph - N/A   Unknown
10:56 AM 35.1 °F 28.6 °F 28.9 °F 78% 29.62 in - SSE 8.1 mph - N/A   Unknown
11:56 AM 36.0 °F 28.0 °F 30.0 °F 79% 29.60 in - SSE 11.5 mph - N/A   Unknown
12:56 PM 37.0 °F 31.0 °F 30.9 °F 79% 29.56 in - SSE 8.1 mph - N/A   Unknown
1:56 PM 37.9 °F 30.5 °F 30.9 °F 76% 29.52 in - SSE 11.5 mph - N/A   Unknown
2:56 PM 37.9 °F 30.9 °F 32.0 °F 79% 29.50 in - SSE 10.4 mph - N/A   Unknown
3:56 PM 36.0 °F 27.1 °F 32.0 °F 86% 29.48 in - South 13.8 mph - N/A   Unknown
4:56 PM 34.0 °F 24.6 °F 32.0 °F 92% 29.47 in - South 13.8 mph - N/A   Unknown
5:56 PM 33.1 °F 25.5 °F 32.0 °F 96% 29.48 in - South 9.2 mph - N/A   Unknown
6:56 PM 32.0 °F 24.2 °F 30.9 °F 96% 29.46 in - SSE 9.2 mph - N/A   Unknown
7:56 PM 32.0 °F 23.6 °F 30.9 °F 96% 29.45 in - SSE 10.4 mph - N/A   Unknown
8:56 PM 30.9 °F 21.7 °F 30.9 °F 100% 29.43 in - SSE 11.5 mph - N/A   Unknown
9:56 PM 33.1 °F 24.9 °F 32.0 °F 96% 29.40 in - South 10.4 mph - N/A   Unknown
10:56 PM 36.0 °F 32.1 °F 33.1 °F 89% 29.40 in - West 4.6 mph - N/A   Unknown
11:56 PM 37.0 °F - 30.9 °F 79% 29.40 in - Calm Calm - N/A   Unknown